Location: Unspecified
(0.0000°N, 0.0000°E)
Time: 01:01:01
(UTC+00:00)

S-56A Canister/Altair - Pass Details

Date: 17 December 2018
Orbit: 633 x 2500 km, 38.9° (Epoch: 18 January)

Event Time Altitude Azimuth Distance (km) Brightness Sun altitude
Rises 06:21:46 0° 340° (NNW) 5,711 11.6 5.9°
Reaches altitude 10° 06:31:38 10° 16° (NNE) 5,070 11.7 8.2°
Maximum altitude 06:33:52 10° 25° (NNE) 5,077 11.8 8.7°
Drops below altitude 10° 06:36:08 10° 34° (NNE) 5,143 11.9 9.2°
Sets 06:46:31 0° 68° (ENE) 6,089 12.8 11.6°
